Location: Newark
(36.7000°N, 45.1333°E)
Time: 13:47:59
(UTC+00:00)

N. Korean satellite - Visible Passes

Search period start: 19 January 2020 00:00
Search period end: 29 January 2020 00:00
Orbit: 454 x 508 km, 97.2° (Epoch: 18 January)

Date Brightness Start Highest point End Pass type
(mag) Time Alt. Az. Time Alt. Az. Time Alt. Az.
19 Jan 9.1 02:05:21 10° NE 02:08:09 22° E 02:10:58 10° SSE visible
19 Jan 8.0 03:38:55 10° NNW 03:41:22 18° WNW 03:43:50 10° WSW visible
20 Jan 10.2 01:42:07 10° E 01:42:31 10° E 01:42:54 10° E visible
20 Jan 7.0 03:12:44 10° N 03:16:02 38° WNW 03:19:22 10° SW visible
21 Jan 6.5 02:47:03 10° NNE 02:50:36 89° ENE 02:54:11 10° SSW visible
21 Jan 9.7 14:54:32 10° SW 14:56:52 17° W 14:59:11 10° NW visible
22 Jan 8.1 02:21:46 10° NNE 02:25:06 37° E 02:28:28 10° SSE visible
23 Jan 9.5 01:57:04 10° NE 01:59:31 17° E 02:01:58 10° SE visible
23 Jan 7.7 03:29:58 10° NNW 03:32:50 23° WNW 03:35:43 10° SW visible
24 Jan 6.7 03:03:59 10° N 03:07:27 50° WNW 03:10:58 10° SSW visible
25 Jan 6.9 02:38:25 10° NNE 02:42:00 68° E 02:45:36 10° S visible
25 Jan 9.4 14:45:28 10° SSW 14:48:11 22° W 14:50:54 10° NW visible
26 Jan 8.7 02:13:17 10° NE 02:16:28 29° E 02:19:39 10° SSE visible
27 Jan 9.9 01:48:55 10° ENE 01:50:51 14° E 01:52:47 10° SE visible
27 Jan 7.4 03:21:06 10° NNW 03:24:15 29° WNW 03:27:27 10° SW visible
28 Jan 6.5 02:55:16 10° N 02:58:51 68° WNW 03:02:28 10° SSW visible
28 Jan 9.9 15:03:27 10° WSW 15:05:08 13° W 15:06:50 10° WNW visible
